GORIZONT 8 [-]

Last updated on Wed Jun 28 2023 01:02:54 GMT+0100 (British Summer Time)

1 14532U 83118A 23177.70110279 -.00000179 00000+0 00000+0 0 9999 2 14532 11.6243 322.2269 0031042 157.3078 182.3041 0.98271273109863
UTC large
Height (km)
Speed (km/s)
/
Latitude / Longitude
Inclination (degrees)
Orbital Period (minutes)
Azimuth
Elevation
Range (km)
Doppler Factor

Next 0 passes for location: London (51.5072 / 0.1276)

Sorry there are no passes over London.